STARLINK-2646, 48642

Orbit data source: Space-Track

STARLINK-2646, 48642 is a payload satellite owned by SpaceX/Seattle (US) in LEO that was launched on Wed, 26 May 2021 UTC via an FALCON 9 launch vehicle from the Air Force Eastern Test Range (AFETR). Payload-class satellites include a variety of spacecraft equipped with specific instruments for various scientific and technological missions. These include communications satellites like Starlink; space stations such as the ISS; scientific satellites like the Hubble; Earth observation satellites from companies like Planet Labs, Umbra, and HawkEye 360; GPS; miniature CubeSats for education and research; and military/defense satellites.

Loading next visibility...
Identifier
48642, 2021-044E
Orbit
LEO
Country
Flag of USUS
Related business
Manufacturer
SpaceX/Seattle
Mission
Operational Commercial Communications
Bus & Motor
STARLINK, Unknown motor
Mass
260 kg wet, ~248 kg dry
Launch date (UTC)
2021-05-26 (5 years ago)
Launch vehicle
FALCON 9
Launch site
Air Force Eastern Test Range (AFETR)
Object type
Payload
Rocket body
Debris
Shape & HBR
Box + 1 Pan, 10.1 m
Radar Cross Section
13.562 m², Large (>1 m²)

Expand to show TLE details & history
Last TLE update: 2 days ago

TLE from 2 days ago
0 STARLINK-2646
1 48642U 21044E   26171.48177536  .00002427  00000-0  89916-4 0  9995
2 48642  53.1620 355.7246 0001408  88.9195 271.1968 15.31712144279571
Epoch: 2026-06-20T11:33Z
TLE epoch observation values (Epoch: 2026-06-20T11:33:45.391Z)
Latitude
0.00002°
Longitude
-86.41029°
Altitude
471.584 km
Speed
7.631 km/s
True Right ascension
23h 42m 53s
True Declination
0° 00' 00"
Sunlit
Object was in daylight at epoch
Visualization orbit readout
Latitude
Unknown
Longitude
Unknown
Altitude
Unknown
Speed
Unknown
Apparent Right ascension
Unknown
Apparent Declination
Unknown
Sunlit
N/A
Visualization observer readout
Local Sidereal Time
21:38:31
Azimuth
Unknown
Elevation
Unknown
Doppler factor
Unknown
Orbital elements
Apogee altitude
471.924 km
Perigee altitude
469.996 km
Semi-major axis
6,849.097 km
Eccentricity
0.00014
Inclination
53.162°
RAAN
355.7246°
Arg. of periapsis
88.9195°
True anomaly
271.18067°
Mean anomaly
271.1968°
Eccentric anomaly
271.18873°
Mean motion
3.82907 °/min
Orbital period
94.02 mins
BSTAR
0.000089916
Loading maneuver chart data...
Computing Atmospheric mass density...

Documentation

Showing up to 5 results
|